Location: Binningen
(47.7924°N, 8.7261°E)
Time: 09:14:59
(UTC+00:00)

SJ 16-02 - Pass Details

Date: 17 May 2021
Orbit: 606 x 616 km, 75.0° (Epoch: 15 June)

Event Time Altitude Azimuth Distance (km) Brightness Sun altitude
Rises 21:07:44 0° 239° (WSW) 2,881 4.8 -16.3°
Reaches altitude 10° 21:10:27 10° 255° (WSW) 1,980 4.2 -16.5°
Maximum altitude 21:13:48 21° 305° (NW) 1,407 4.0 -16.8°
Drops below altitude 10° 21:17:11 10° 354° (N) 1,989 5.0 -17.1°
Sets 21:19:56 0° 11° (N) 2,898 5.6 -17.4°
